Flag for U.S.A. Weather past 2 weeks in Richmond, Virginia, U.S.A.

Now
40 °F

Mostly cloudy.


Feels Like: 38 °F
Forecast: 38 / 48 °F
Wind: 3 mph from Northeast

Location: Richmond International Airport

Current Time: Jan 26, 2015 at 8:33:03 AM

Latest Report: Jan 26, 2015 at 7:54 AM


Visibility: 9 mi

Pressure: 29.75 "Hg

Humidity: 93%

Dew point: 38 °F

Location of RichmondLocation

Historic Weather in Richmond — Graph

°F

Richmond temperature yesterday

Maximum temperature yesterday: 53 °F (at 1:54 PM)
Minimum temperature yesterday: 33 °F (at 2:54 AM)
Average temperature yesterday: 43 °F

Past Weeks' High & Low Weather Summary

 TemperatureHumidityPressure
High59 °F (Jan 20, 3:54 PM)100% (Jan 12, 7:54 AM)30.71 "Hg (Jan 12, 7:54 AM)
Low20 °F (Jan 11, 6:54 AM)25% (Jan 11, 2:54 PM)29.48 "Hg (Jan 24, 12:54 PM)
Average39 °F75%30.13 "Hg
* Reported Jan 11 6:54 AM — Jan 26 6:54 AM, Richmond, Weather by CustomWeather, © 2014

Note: Actual official high and low records may vary slightly from our data, if they occured in-between our weather recording intervals... More about our weather records

Advertising

Richmond weather history for previous 24 hours

 ConditionsComfort  
Time TempWeatherWind HumidityBarometerVisibility
6:54 AM
Jan 26
39 °FOvercast.5 mph93%29.75 "Hg9 mi
5:54 AM40 °FLight rain. Overcast.No wind93%29.76 "Hg9 mi
4:54 AM40 °FLight rain. Overcast.No wind89%29.76 "Hg10 mi
3:54 AM41 °FLight rain. Overcast.No wind86%29.78 "Hg10 mi
2:54 AM41 °FLight rain. Mostly cloudy.9 mph86%29.79 "Hg10 mi
1:54 AM41 °FOvercast.5 mph80%29.80 "Hg10 mi
12:54 AM41 °FMostly cloudy.6 mph80%29.83 "Hg10 mi
11:54 PM
Jan 25
42 °FOvercast.9 mph76%29.85 "Hg10 mi
10:54 PM42 °FOvercast.8 mph79%29.86 "Hg10 mi
9:54 PM42 °FOvercast.8 mph76%29.86 "Hg10 mi
8:54 PM42 °FMostly cloudy.7 mph76%29.86 "Hg10 mi
7:54 PM42 °FMostly cloudy.7 mph76%29.87 "Hg10 mi
6:54 PM42 °FPassing clouds.6 mph76%29.85 "Hg10 mi
5:54 PM49 °FPassing clouds.6 mph57%29.85 "Hg10 mi
4:54 PM50 °FPartly sunny.5 mph54%29.84 "Hg10 mi
3:54 PM53 °FPartly sunny.6 mph48%29.85 "Hg10 mi
2:54 PM53 °FPartly sunny.7 mph45%29.85 "Hg10 mi
1:54 PM53 °FPartly sunny.10 mph45%29.86 "Hg10 mi
12:54 PM51 °FScattered clouds.7 mph48%29.88 "Hg10 mi
11:54 AM50 °FPartly sunny.7 mph48%29.90 "Hg10 mi
10:54 AM48 °FBroken clouds.8 mph54%29.93 "Hg10 mi
9:54 AM44 °FBroken clouds.9 mph63%29.92 "Hg10 mi
8:54 AM39 °FPartly sunny.6 mph70%29.90 "Hg10 mi
Weather by CustomWeather, © 2014

See weather overviewHow to use our weather pages